This is the latest recevied weather packets stored in our database for station/object KI4FRU. If no packets are shown the sender has not sent any weather packets the latest 10 day(s).
| Time | Temp. | Humidity | Pressure | Rain* | Wind** | Luminosity | Snow |
|---|---|---|---|---|---|---|---|
| 1777737110 | 14.44° C | 63% | 1053.5 hPa | 0 mm | - | 109 W/m² | - |
| 1777736806 | 14.44° C | 64% | 1053.3 hPa | 0 mm | - | 86 W/m² | - |
| 1777736178 | 14.44° C | 62% | 1053.3 hPa | 0 mm | - | 92 W/m² | - |
| 1777735875 | 14.44° C | 64% | 1053.3 hPa | 0 mm | - | 88 W/m² | - |
| 1777735572 | 14.44° C | 62% | 1053.1 hPa | 0 mm | - | 104 W/m² | - |
| 1777735269 | 13.89° C | 66% | 1053.3 hPa | 0 mm | - | 127 W/m² | - |
| 1777734967 | 13.89° C | 60% | 1053.3 hPa | 0 mm | - | 101 W/m² | - |
| 1777734664 | 13.89° C | 60% | 1053.2 hPa | 0 mm | - | 90 W/m² | - |
| 1777734362 | 13.89° C | 62% | 1053.3 hPa | 0 mm | - | 102 W/m² | - |
| 1777734057 | 13.33° C | 66% | 1053.2 hPa | 0 mm | - | 100 W/m² | - |
| 1777733754 | 13.33° C | 66% | 1053.3 hPa | 0 mm | - | 77 W/m² | - |
| 1777733451 | 13.33° C | 68% | 1053.4 hPa | 0 mm | - | 61 W/m² | - |
| 1777733147 | 13.33° C | 67% | 1053.5 hPa | 0 mm | - | 49 W/m² | - |
| 1777732844 | 13.33° C | 65% | 1053.4 hPa | 0 mm | - | 53 W/m² | - |
| 1777732540 | 13.33° C | 71% | 1053.1 hPa | 0 mm | - | 58 W/m² | - |
| 1777732239 | 13.33° C | 69% | 1053.1 hPa | 0 mm | - | 55 W/m² | - |
| 1777731935 | 13.33° C | 68% | 1053.3 hPa | 0 mm | - | 50 W/m² | - |
| 1777731632 | 13.89° C | 69% | 1053.1 hPa | 0 mm | - | 41 W/m² | - |
| 1777731329 | 13.89° C | 64% | 1052.7 hPa | 0 mm | - | 67 W/m² | - |
| 1777731027 | 13.89° C | 68% | 1052.8 hPa | 0 mm | - | 54 W/m² | - |
| 1777730725 | 13.89° C | 71% | 1052.7 hPa | 0 mm | - | 76 W/m² | - |
| 1777730421 | 13.33° C | 71% | 1052.8 hPa | 0 mm | - | 83 W/m² | - |
| 1777730117 | 13.89° C | 66% | 1052.7 hPa | 0 mm | - | 75 W/m² | - |
| 1777729814 | 13.89° C | 67% | 1052.8 hPa | 0 mm | - | 78 W/m² | - |
| 1777729510 | 13.33° C | 72% | 1053 hPa | 0 mm | - | 98 W/m² | - |
* Rain latest hour (hover to see other rain measurements)
** Current wind speed in m/s (hover to see current wind gust speed)